Regional Weather Roundup
Issued by NWS Albany, NY

Home | Current Version | Previous Version | Text Only | Print | Product List | Glossary On
Versions: 1 2 3 4 5 6 7 8 9 10 11 12 13 14 15 16 17 18 19 20 21 22 23 24 25 26 27
000
ASUS41 KALY 162210
RWRALY

NEW YORK STATE HOURLY WEATHER ROUNDUP
NATIONAL WEATHER SERVICE ALBANY NY
600 PM EDT MON OCT 16 2017

NOTE: "FAIR" INDICATES FEW OR NO CLOUDS BELOW 12,000 FEET WITH NO
SIGNIFICANT WEATHER AND/OR NO OBSTRUCTIONS TO VISIBILITY.

NYZ032-033-038>043-046>054-057>066-NYZ062>081-082-084-162300-
EAST


CITY           SKY/WX    TMP DP  RH WIND       PRES   REMARKS
ALBANY         MOCLDY    50  29  44 NW13G23   30.11R
GLENS FALLS    PTCLDY    47  32  56 NW9       30.11R
POUGHKEEPSIE   MOCLDY    52  37  56 N5        30.08R
NEWBURGH       PTCLDY    52  37  58 NW14      30.09R
MONTGOMERY     MOCLDY    53  36  52 NW9G20    30.09R
WHITE PLAINS   CLOUDY    53  38  56 NW13      30.06R
ISLIP          CLOUDY    55  41  59 N15       30.05R
NEW YORK CITY  CLOUDY    57  39  51 NW14      30.07R
CENTRAL PARK   CLOUDY    56  37  49 VRB5      30.11R
$$

NYZ005>009-017-018-044>046-055-056-162300-
CENTRAL


CITY           SKY/WX    TMP DP  RH WIND       PRES   REMARKS
FULTON         CLOUDY    44  38  79 W5        30.20R
SYRACUSE       MOCLDY    44  36  73 NW6       30.20R
ROME           LGT RAIN  43  38  82 NW13      30.19R
ELMIRA         MOCLDY    48  35  60 N7        30.18R
BINGHAMTON     CLOUDY    42  32  67 N12       30.15R
MONTICELLO     MOCLDY    46  34  62 N15       30.12R
$$

NYZ026>034-041>043-087-162300-
NORTH


CITY           SKY/WX    TMP DP  RH WIND       PRES   REMARKS
WATERTOWN      MOCLDY    44  35  70 NW8       30.19R
FORT DRUM      NOT AVBL
OGDENSBURG     FAIR      44  29  55 NW9       30.18R
MASSENA        MOCLDY    44  29  55 W8        30.18R
SARANAC LAKE   CLOUDY    37  34  89 CALM      30.11R
PLATTSBURGH    CLOUDY    44  33  65 NW10      30.14R
$$

NYZ001>004-010>016-019>021-085-162300-
WEST


CITY           SKY/WX    TMP DP  RH WIND       PRES   REMARKS
NIAGARA FALLS  MOCLDY    49  32  52 NW8       30.24R
BUFFALO        PTCLDY    48  32  53 NW9       30.23S
DUNKIRK        MOCLDY    50  33  52 W6        30.25R
JAMESTOWN      PTCLDY    45  33  63 NW8       30.23R
WELLSVILLE     MOCLDY    44  28  53 NW13      30.20R
ROCHESTER      MOCLDY    46  32  58 NW8       30.23R
$$

             KEY
       WCI = WIND CHILL INDEX
       VSB = VISIBILITY
       HX  = HEAT INDEX
$$




USA.gov is the U.S. government's official web portal to all federal, state and local government web resources and services.